Lid_Strength_Index
1 -0 -1 -1 -1 -1 -1 -1 -1 -1 -1 -1 -1 -1 -1 -1 -1 -1 -1 -1 -2 -1 -1 -1 -1 -1 -1 -1 -1 -2 -2 -2 -2 -1 -2 -1 -1 -1 -1 -1 -1 -1 -1
-0 -1 -0 -1 -1 -1 -1 -1 -1 -1 -1 -1 -1 -1 -1 -1 -1 -1 -1 -1 -1 -1 -1 -1 -1 -1 -1 -1 -1 -2 -2 -2 -2 -2 -1 -1 -1 -1 -1 -1 -1 -1 -1
0 -1 -1 -1 -1 -1 -1 -1 -1 -1 -1 -1 -1 -1 -1 -1 -1 -1 -1 -1 -1 -1 -1 -1 -1 -1 -1 -1 -1 -1 -1 -2 -2 -2 -2 -1 -1 -1 -1 -1 -1 -1 -1
-0 -1 -1 -0 -1 -1 -1 -1 -1 -1 -1 -1 -1 -1 -1 -1 -1 -1 -1 -1 -1 -1 -1 -1 -1 -1 -1 -1 -1 -1 -1 -2 -2 -2 -1 -1 -1 -1 -1 -1 -1 -1 -1
-0 -1 -1 -0 -1 -1 -1 -1 -1 -1 -1 -1 -1 -1 -1 -1 -1 -1 -1 -1 -1 -1 -1 -1 -1 -1 -1 -1 -1 -1 -1 -2 -1 -1 -1 -1 -1 -1 -1 -1 -1 -1 -1
-0 -1 -0 -1 -1 -1 -1 -1 -1 -1 -1 -1 -1 -1 -1 -1 -1 -1 -1 -1 -1 -1 -1 -1 -1 -1 -1 -1 -1 -1 -1 -1 -1 -1 -1 -1 -1 -1 -1 -1 -2 -1 -1
0 -0 -1 -1 -1 -1 -1 -1 -1 -1 -1 -1 -1 -1 -1 -1 -1 -1 -1 -1 -1 -1 -1 -1 -1 -1 -1 -1 -1 -1 -1 -1 -1 -1 -1 -1 -1 -1 -1 -1 -2 -2 -2
0 0 -1 1 0 -1 -1 -1 -1 -1 -1 -1 -1 -1 -1 -0 0 0 1 1 1 1 1 1 1 1 1 -0 -1 -1 -1 -0 -1 -1 -1 -1 -1 -1 -2 -2 -2 -2 -2
1 0 1 0 1 1 1 1 -0 -0 0 1 1 2 3 3 3 3 3 3 3 3 3 3 3 3 3 3 2 1 1 0 -1 -1 -1 -1 -1 -2 -2 -2 -2 -2 -2
2 2 2 3 3 3 3 3 2 2 3 4 4 5 5 5 5 5 4 3 3 3 3 3 3 3 4 4 4 3 3 1 -1 -1 -1 -1 -1 -2 -2 -2 -2 -2 -2
6 5 6 5 5 5 5 5 4 4 5 5 5 5 5 5 5 5 4 4 3 3 2 2 2 3 3 3 3 2 1 1 2 -0 -1 -1 -1 -2 -2 -2 -2 -2 -2
7 7 7 7 6 6 6 5 5 5 5 5 5 6 6 6 5 5 5 5 5 5 4 4 4 5 5 5 4 4 4 3 3 2 -0 -1 -1 -2 -2 -2 -2 -2 -2
7 7 7 6 6 5 6 6 5 6 6 6 6 6 6 6 6 6 6 6 6 7 7 6 6 6 6 6 5 5 5 4 4 3 2 2 1 0 -2 -2 -2 -2 -2
8 8 7 6 6 6 6 6 6 7 7 6 6 6 6 6 7 7 7 7 7 7 7 7 7 7 7 7 6 6 5 5 4 4 4 3 2 1 -1 -0 -1 -2 -2
9 9 7 7 7 7 7 7 6 7 7 7 6 6 6 7 7 7 8 8 8 8 8 8 8 8 7 7 7 6 6 5 5 5 4 3 3 2 0 -1 -1 -1 -2
8 8 8 7 7 7 7 7 7 7 7 7 7 7 7 7 8 8 8 9 8 8 8 8 8 8 8 8 8 7 7 7 6 5 5 4 3 3 2 1 -0 -1 -2
8 8 8 7 7 7 7 7 7 7 8 8 8 8 8 8 9 9 9 9 9 9 9 9 9 8 8 8 9 8 8 7 7 6 6 5 4 4 3 2 1 0 -0
8 8 7 6 7 7 8 8 8 8 8 9 9 9 9 9 9 9 10 10 9 9 9 9 9 9 9 9 9 9 8 8 7 7 6 6 5 5 4 4 3 2 1
8 7 7 6 7 8 8 9 9 9 10 10 10 9 9 9 10 10 10 10 10 10 10 10 10 10 10 10 10 9 9 8 8 8 7 7 6 5 5 4 3 3 2
7 7 7 7 8 9 9 10 10 10 11 10 10 10 10 10 10 10 11 11 10 10 11 10 11 10 10 11 10 10 9 8 8 7 6 6 4 4 3 3 3 3 3
8 8 8 8 9 10 10 11 11 11 11 11 11 11 11 11 11 11 11 11 11 11 11 11 11 11 11 10 10 10 9 8 7 7 6 5 5 6 5 5 4 4 4
9 8 8 8 9 10 10 11 11 11 11 11 11 11 11 11 11 11 11 12 12 12 12 12 12 12 11 10 12 11 12 9 8 7 6 6 7 6 6 5 5 5 5
9 8 8 9 9 10 11 12 12 12 12 12 12 12 12 12 12 12 12 12 12 12 12 13 12 12 13 11 10 11 12 13 11 8 8 7 7 7 6 6 6 6 6
9 8 8 9 10 11 11 11 11 12 12 12 12 12 12 12 12 12 12 12 12 12 13 13 12 12 12 13 11 10 10 10 13 13 9 8 7 8 8 7 6 6 6
9 9 9 10 11 11 11 11 12 12 13 13 13 13 13 13 13 13 13 13 13 13 13 12 12 12 11 11 12 11 11 11 11 12 13 11 9 8 8 8 7 7 7
10 10 10 11 11 12 12 12 12 13 14 14 14 13 13 13 13 14 13 13 13 13 12 13 12 12 12 11 11 11 12 12 12 12 13 12 12 10 9 8 8 7 7